VE3FWM Weather Reports


Display with metric or nautical units.
time (UTC)temp
F
wind
direction
speed
MPH
gust
MPH
rain 1hr
in
rain 24hr
in
rain mn
in
humidity
%
barometer
mb
20260505194506 53 311 1.0 10.0 0.00 0.00 0.00 69 1006.7
20260505193001 55 294 1.0 11.0 0.00 0.00 0.00 61 1006.3
20260505191611 57 273 3.0 19.0 0.00 0.00 0.00 53 1006.1
20260505190054 57 262 3.0 14.0 0.00 0.00 0.00 53 1005.6
20260505184552 58 234 1.0 11.0 0.00 0.00 0.00 51 1005.7
20260505183049 59 266 2.0 12.0 0.00 0.00 0.00 50 1005.3
20260505181549 59 259 3.0 11.0 0.00 0.00 0.00 51 1005.0
20260505180049 59 210 2.0 13.0 0.00 0.00 0.00 52 1004.7
20260505174545 59 318 2.0 12.0 0.00 0.00 0.00 51 1004.5
20260505173040 60 260 2.0 16.0 0.00 0.00 0.00 52 1004.3
20260505171543 61 287 2.0 17.0 0.00 0.00 0.00 53 1004.0
20260505170055 61 254 4.0 12.0 0.00 0.00 0.00 54 1003.8
20260505164538 61 256 3.0 10.0 0.00 0.00 0.00 56 1003.7
20260505163036 61 226 1.0 17.0 0.00 0.00 0.00 57 1003.7
20260505161532 60 270 3.0 14.0 0.00 0.00 0.00 60 1004.0
20260505153026 60 222 2.0 11.0 0.00 0.00 0.00 68 1002.9
20260505151524 59 196 3.0 15.0 0.00 0.00 0.00 71 1003.5
20260505124502 61 238 3.0 11.0 0.00 0.00 0.00 74 1000.3
20260505123059 60 248 2.0 12.0 0.00 0.00 0.00 74 999.8
20260505121625 60 245 2.0 8.0 0.00 0.00 0.00 74 999.5
20260505120056 60 236 2.0 12.0 0.00 0.00 0.00 75 999.7
20260505114552 60 200 2.0 9.0 0.00 0.00 0.00 75 999.8
20260505113048 60 243 3.0 8.0 0.00 0.00 0.00 75 999.6
20260505111546 60 209 3.0 10.0 0.00 0.00 0.00 75 999.2
20260505101540 60 204 2.0 11.0 0.00 0.00 0.00 74 998.5
20260505100036 60 181 2.0 10.0 0.00 0.00 0.00 73 998.5
20260505094536 60 218 3.0 15.0 0.00 0.00 0.00 73 998.2
20260505093040 60 162 3.0 8.0 0.00 0.00 0.00 73 998.1
20260505091532 60 199 2.0 8.0 0.00 0.00 0.00 73 998.3
20260505090048 60 200 3.0 10.0 0.00 0.00 0.00 74 998.1
20260505084530 60 231 1.0 9.0 0.00 0.00 0.00 73 998.1
20260505083030 60 208 3.0 6.0 0.00 0.00 0.00 73 998.0
20260505081531 60 205 2.0 10.0 0.00 0.00 0.00 73 998.4
20260505080024 60 194 3.0 10.0 0.00 0.00 0.00 72 998.5
20260505074523 61 202 3.0 11.0 0.00 0.00 0.00 71 998.5
20260505073027 61 223 2.0 14.0 0.00 0.00 0.00 71 998.6
20260505071520 61 224 3.0 8.0 0.00 0.00 0.00 69 998.7
20260505070018 62 226 3.0 10.0 0.00 0.00 0.00 69 998.6
20260505064517 62 259 2.0 11.0 0.00 0.00 0.00 68 998.5
20260505063014 62 203 4.0 12.0 0.00 0.00 0.00 68 998.8
20260505061511 62 212 3.0 12.0 0.00 0.00 0.00 68 998.9
20260505060022 62 201 3.0 14.0 0.00 0.00 0.00 67 999.1
20260505054509 62 225 3.0 12.0 0.00 0.00 0.00 66 999.3
20260505053005 62 229 2.0 10.0 0.00 0.00 0.00 65 999.4
20260505051506 62 207 2.0 11.0 0.00 0.00 0.00 65 999.3
20260505041556 63 220 1.0 11.0 0.00 0.00 0.00 65 999.3
20260505040055 63 200 2.0 10.0 0.00 0.00 0.00 64 999.2
20260505034552 63 242 3.0 13.0 0.00 0.00 0.00 62 999.4
20260505033110 63 224 3.0 13.0 0.00 0.00 0.00 60 999.6
20260505031550 63 206 2.0 11.0 0.00 0.00 0.00 58 999.7
20260505030049 64 168 1.0 12.0 0.00 0.00 0.00 56 999.8
20260505024547 64 202 2.0 9.0 0.00 0.00 0.00 54 1000.1
20260505023058 64 209 2.0 9.0 0.00 0.00 0.00 52 1000.1
20260505021547 64 184 3.0 8.0 0.00 0.00 0.00 51 1000.3
20260505020051 64 208 1.0 8.0 0.00 0.00 0.00 49 1000.5
20260505014546 65 192 3.0 11.0 0.00 0.00 0.00 47 1000.3
20260505013045 65 189 2.0 10.0 0.00 0.00 0.00 45 1000.3
20260505011547 65 179 2.0 8.0 0.00 0.00 0.00 44 1000.1
20260505010045 66 194 2.0 10.0 0.00 0.00 0.00 42 1000.1
20260505004549 66 182 3.0 11.0 0.00 0.00 0.00 41 1000.0
20260505003043 67 186 2.0 9.0 0.00 0.00 0.00 40 999.9
20260505001542 67 232 2.0 11.0 0.00 0.00 0.00 39 1000.1
20260505000044 68 209 2.0 11.0 0.00 0.00 0.00 38 1000.3
20260504234603 68 191 4.0 17.0 0.00 0.00 0.00 38 1000.6
20260504233038 69 238 3.0 14.0 0.00 0.00 0.00 37 1000.8
20260504231549 69 173 3.0 23.0 0.00 0.00 0.00 36 1000.6
20260504230037 70 171 2.0 29.0 0.00 0.00 0.00 38 1000.7
20260504224537 70 173 3.0 14.0 0.00 0.00 0.00 37 1000.9
20260504223038 71 192 4.0 16.0 0.00 0.00 0.00 36 1000.8
20260504221536 71 184 3.0 20.0 0.00 0.00 0.00 38 1000.8
20260504220035 71 149 6.0 16.0 0.00 0.00 0.00 38 1000.9
20260504214539 71 183 8.0 23.0 0.00 0.00 0.00 37 1000.9
20260504213033 73 179 5.0 19.0 0.00 0.00 0.00 35 1000.9
20260504211533 73 239 2.0 20.0 0.00 0.00 0.00 33 1000.7
20260504210032 73 267 2.0 23.0 0.00 0.00 0.00 34 1000.8
20260504204608 73 248 3.0 21.0 0.00 0.00 0.00 34 1000.5
20260504203031 73 200 5.0 23.0 0.00 0.00 0.00 36 1000.7
20260504201529 73 242 3.0 17.0 0.00 0.00 0.00 36 1000.8
20260504200035 74 214 5.0 28.0 0.00 0.00 0.00 37 1000.7